РПИ Минск

Обслуживание воздушного движения в воздушном пространстве Республики Беларусь осуществляется Минским районным и аэродромным диспетчерским центром, а также службами воздушного движения в аэропортах при тесном взаимодействии со смежными диспетчерскими центрами и другими органами, участвующими в обеспечении полетов. Благодаря согласованным действиям полеты воздушных судов осуществляются по кратчайшим расстояниям, на экономичных высотах и режимах полета. Управление воздушным движением осуществляется на площади 207,6 кв. км, а протяженность воздушных трасс составляет 25 000 км.

В воздушном пространстве Республики Беларусь в узловых диспетчерских районах установлена единая для гражданских аэропортов высота перехода (transition altitude) - 6000 ft (1850 м), определяемая по давлению аэродрома, приведенному к среднему уровню моря по стандартной атмосфере.

Эшелон перехода (Transition Level) устанавливается:

TL80 (2450 м) - при минимальном давлении на территории Республики Беларусь, приведенном к среднему уровню моря по стандартной атмосфере, до 977,2 гПа;

TL90 (2750 м) - при минимальном давлении на территории Республики Беларусь, приведенном к среднему уровню моря по стандартной атмосфере 977,1 гПа и ниже.

Средства связи ОВД:

UMMV_CTR - Minsk-Control - Минск-Контроль - 129.000

Диапазон кодов ответчика: район применения ICAO EUR-E

2001-2077, 5101-5137 (транзит), 6230-6277  (транзит)

Лого Минск
Руководство

Roman Savel

Начальник ЗЦ Беларусь

Maxim Gerasimov

Инструктор
Контакты

Инструкторы РПИ
Andrei Valasevich * (Controller)
Denis Kashin (Instructor)
Maxim Gerasimov (Instructor)
Roman Savel (Instructor)
Входит в состав
Западная Россия

Диспетчеры РПИ

Диспетчер Рейтинг Допуски *
Artem Mordvinov Controller UMMV_CTR
Alexander Petrenko Instructor UMMV_CTR
Andrei Valasevich Controller UMMV_CTR
Denis Kashin Instructor UMMV_CTR
Dmitriy Kuzmin Controller UMMV_CTR  *, UMMS_APP
Maxim Gerasimov Instructor UMMV_CTR
Roman Savel Instructor UMMV_CTR
Akmal Choriev Student UMMS_GND
Aleksey Zgoda Student UMMS_GND, UMMS_1_TWR*, UMMS_2_TWR*
alex kozyro Student 2 UMMS_2_TWR*, UMMS_1_TWR*
Alexander Belyakov Unknown UMMS_APP
Alexander Nazarenko Student UMMS_GND
Alexey Verbitsky Student UMMS_GND
Anna Piliushko Student 2 UMMS_APP*
Arseny Krutikov Senior Student UMMS_APP*
Artyom Somok Student UMMS_GND
Danila Yarov Senior Student UMMS_APP
Ignat Morozov Student 2 UMMS_GND
Iosif Karpov Student 2 UMMS_R_APP*
Ivan Davidovich Student UMMS_GND
Maksim Tsyro Student UMMS_GND
Matthew Palusaar Student UMMS_1_TWR*, UMMS_2_TWR*
Maxim Ivantsov Student 2 UMMS_R_APP*
Michael Kostelcev Student 2 UMMS_APP*
Pavel Kostuykov Student 2 UMMS_1_TWR, UMMS_2_TWR
Pavel Yashin Student 2 UMMS_APP*
tikhon pogrebnyak Student UMMS_GND
Ura Strelkov Student UMMS_GND
Vsevolod Shyshko Student UMMS_2_TWR*, UMMS_1_TWR*

Аэропорты РПИ

ICAO Город Название Погода
UMMS Минск Минск UMMS 240730Z 08004G07MPS 9000 -RA FEW009 OVC049 05/04 Q1012 NOSIG
UMBB Брест Брест UMBB 240700Z 07004G07MPS 4900 -RA BR OVC004 07/06 Q1006 NOSIG RMK QBB140
UMII Витебск Восточный UMII 240730Z 10004G07MPS 9999 FEW030 06/M00 Q1016 NOSIG
UMGG Гомель Гомель UMGG 240730Z 11008G11MPS 9999 SCT060CB OVC100 11/05 Q1013 NOSIG
UMMG Гродно Гродно UMMG 240730Z 04004MPS 6000 -RA OVC004 03/02 Q1009 NOSIG RMK QBB140
UMOO Могилёв Могилёв UMOO 240700Z 08005MPS 9999 OVC041 06/03 Q1016 TEMPO 3000 -SHRA BKN005 BKN016CB